Flag for United Kingdom Weather past 2 weeks in Glasgow, Scotland, United Kingdom

Now
61 °F

Refreshingly cool.


Feels Like: 61 °F
Forecast: 40 / 63 °F
Wind: 9 mph from Northwest

Location: Glasgow Airport

Current Time: Apr 21, 2015 at 4:30:51 PM

Latest Report: Apr 21, 2015 at 3:50 PM


Visibility: N/A

Pressure: 30.57 "Hg

Humidity: 55%

Dew point: 45 °F

Location of GlasgowLocation

Historic Weather in Glasgow — Graph

°F

Glasgow temperature yesterday

Maximum temperature yesterday: 57 °F (at 4:20 PM)
Minimum temperature yesterday: 36 °F (at 12:20 AM)
Average temperature yesterday: 48 °F

Past Weeks' High & Low Weather Summary

 TemperatureHumidityPressure
High64 °F (Apr 10, 4:50 PM)100% (Apr 8, 1:20 AM)30.63 "Hg (Apr 8, 1:20 AM)
Low28 °F (Apr 8, 5:20 AM)36% (Apr 16, 5:20 PM)29.56 "Hg (Apr 11, 1:50 AM)
Average46 °F76%30.23 "Hg
* Reported Apr 6 3:20 PM — Apr 21 3:20 PM, Glasgow, Weather by CustomWeather, © 2015

Note: Actual official high and low records may vary slightly from our data, if they occured in-between our weather recording intervals... More about our weather records

Advertising

Glasgow weather history for previous 24 hours

 ConditionsComfort  
Time TempWeatherWind HumidityBarometerVisibility
3:20 PM
Tue, Apr 21
61 °FRefreshingly cool.8 mph52%30.60 "HgN/A
2:50 PM61 °FRefreshingly cool.10 mph52%30.60 "HgN/A
2:20 PM59 °FRefreshingly cool.12 mph55%30.60 "HgN/A
1:50 PM59 °FRefreshingly cool.9 mph55%30.60 "HgN/A
1:20 PM59 °FRefreshingly cool.12 mph55%30.60 "HgN/A
12:50 PM59 °FRefreshingly cool.12 mph55%30.60 "HgN/A
12:20 PM57 °FRefreshingly cool.13 mph59%30.60 "HgN/A
11:50 AM57 °FRefreshingly cool.10 mph59%30.63 "HgN/A
11:20 AM55 °FCool.7 mph63%30.63 "HgN/A
10:50 AM54 °FCool.9 mph67%30.63 "HgN/A
10:20 AM54 °FPassing clouds.8 mph67%30.63 "HgN/A
9:50 AM52 °FScattered clouds.8 mph72%30.63 "HgN/A
9:20 AM50 °FPassing clouds.5 mph76%30.63 "HgN/A
8:50 AM48 °FCool.7 mph76%30.60 "HgN/A
8:20 AM45 °FQuite cool.7 mph81%30.60 "HgN/A
7:50 AM41 °FQuite cool.5 mph93%30.60 "HgN/A
7:20 AM39 °FChilly.1 mph93%30.60 "HgN/A
6:50 AM34 °FChilly.2 mph93%30.60 "HgN/A
6:20 AM36 °FChilly.2 mph93%30.60 "HgN/A
5:50 AM30 °FChilly.2 mph93%30.60 "HgN/A
5:20 AM34 °FChilly.3 mph93%30.57 "HgN/A
4:20 AM34 °FChilly.6 mph93%30.57 "HgN/A
3:50 AM37 °FChilly.2 mph87%30.57 "HgN/A
3:20 AM37 °FChilly.2 mph93%30.57 "HgN/A
2:50 AM36 °FChilly.1 mph100%30.57 "HgN/A
2:20 AM37 °FChilly.6 mph93%30.57 "HgN/A
1:50 AM36 °FChilly.1 mph93%30.57 "HgN/A
1:20 AM36 °FChilly.2 mph93%30.57 "HgN/A
12:50 AM37 °FChilly.3 mph87%30.57 "HgN/A
12:20 AM37 °FChilly.2 mph87%30.57 "HgN/A
11:50 PM
Mon, Apr 20
39 °FChilly.3 mph87%30.54 "HgN/A
11:20 PM41 °FQuite cool.2 mph87%30.54 "HgN/A
10:50 PM41 °FQuite cool.3 mph87%30.54 "HgN/A
10:20 PM41 °FQuite cool.2 mph87%30.54 "HgN/A
9:50 PM43 °FQuite cool.5 mph81%30.54 "HgN/A
9:20 PM45 °FQuite cool.7 mph76%30.54 "HgN/A
8:50 PM45 °FQuite cool.8 mph71%30.54 "HgN/A
8:20 PM50 °FCool.5 mph54%30.51 "HgN/A
7:50 PM52 °FCool.5 mph54%30.51 "HgN/A
7:20 PM54 °FCool.7 mph51%30.51 "HgN/A
6:50 PM55 °FPassing clouds.9 mph44%30.51 "HgN/A
6:20 PM55 °FRefreshingly cool.9 mph41%30.48 "HgN/A
5:50 PM55 °FPassing clouds.9 mph44%30.48 "HgN/A
5:20 PM57 °FPassing clouds.10 mph41%30.48 "HgN/A
4:50 PM57 °FPartly sunny.13 mph48%30.48 "HgN/A
4:20 PM57 °FOvercast.13 mph48%30.48 "HgN/A
Weather by CustomWeather, © 2015

See weather overviewHow to use our weather pages